Regional Weather Roundup
Issued by NWS

Home | Current Version | Previous Version | Text Only | Print | Product List | Glossary On
Versions: 1 2 3 4 5 6 7 8 9 10 11 12 13 14 15 16 17 18 19 20 21 22 23 24 25 26 27 28 29 30 31 32 33 34 35 36 37 38 39 40 41 42 43 44 45 46 47 48 49 50
000
ASCA44 KEWX 300320
RWRMX

LATIN AMERICA AND CARIBBEAN REGIONAL WEATHER ROUNDUP
NATIONAL WEATHER SERVICE AUSTIN/SAN ANTONIO TX
1000 PM CDT FRI JUL 29 2016

NOTE: "FAIR" INDICATED FEW OR NO CLOUDS BELOW 12,000 FEET WITH NO
SIGNIFICANT WEATHER AND/OR OBSTRUCTIONS TO VISIBILITY.

BAJA CALIFORNIA

CITY           SKY/WX    TMP DP  RH WIND       PRES   REMARKS
LA PAZ         MOCLDY    81  59  47 S7        29.87R
MEXICALI       PTCLDY    95  68  41 SE10      29.62R HX  99
S.J. DEL CABO  MOCLDY    86  57  37 N12       29.86R
TIJUANA        PTCLDY    70  61  73 NW9       29.84R

NORTHWESTERN MEXICO

CITY           SKY/WX    TMP DP  RH WIND       PRES   REMARKS
CULIACAN       MOCLDY    79  77  94 CALM      29.87R
DURANGO        MOCLDY    61  61 100 CALM      30.24R
GUAYMAS          N/A    N/A N/A N/A MISG        N/A
HERMOSILLO     CLOUDY    90  75  62 SW14      29.81R HX 100
CD. JUAREZ     MOCLDY    90  61  37 SE14      29.95R
LOS MOCHIS     MOCLDY    82  70  65 S7        29.85R

NORTHEASTERN MEXICO

CITY           SKY/WX    TMP DP  RH WIND       PRES   REMARKS
CHIHUAHUA      MOCLDY    70  63  78 CALM      30.11R
MONCLOVA         N/A    N/A N/A N/A MISG        N/A
MONTERREY      CLOUDY    77  68  73 NE6       29.96R
REYNOSA        CLEAR     82  70  65 SE14      29.94R
SALTILLO       PTCLDY    70  57  64 CALM      30.20R
TORREON        LGT RAIN  73  66  78 W5        30.11S
CD. VICTORIA     N/A    N/A N/A N/A MISG        N/A

WESTERN MEXICO

CITY           SKY/WX    TMP DP  RH WIND       PRES   REMARKS
AGUASCALIENTES PTCLDY    66  55  68 NE5       30.24R
COLIMA         MOCLDY    73  72  94 CALM      30.02R
DEL BAJIO      CLOUDY    63  59  88 NW6       30.29R
GUADALAJARA    CLOUDY    66  59  77 SW5       30.19R
MAZATLAN       MOCLDY    82  79  89 CALM      29.88R HX  93
P. VALLARTA    CLOUDY    79  75  89 NE3       29.87R
URUAPAN          N/A    N/A N/A N/A MISG        N/A
ZACATECAS      MOCLDY    61  52  72 SW10      30.28R

CENTRAL MEXICO

CITY           SKY/WX    TMP DP  RH WIND       PRES   REMARKS
CUERNAVACA       N/A    N/A N/A N/A MISG        N/A
MEXICO CITY    CLOUDY    63  54  72 W12       30.32R
MORELIA        RAIN      63  61  94 SE2       30.25R
POZA RICA        N/A    N/A N/A N/A MISG        N/A
QUERETARO      MOCLDY    66  55  68 E9        30.31R
S. LUIS POTOSI CLEAR     66  46  48 SE5       30.25R
TAMPICO        PTCLDY    84  75  74 E12       29.96R HX  92
TOLUCA         MOCLDY    57  50  77 CALM      30.40R

SOUTHERN MEXICO

CITY           SKY/WX    TMP DP  RH WIND       PRES   REMARKS
ACAPULCO       CLEAR     82  77  83 W6        29.86R HX  91
B. DE HUATULCO   N/A    N/A N/A N/A MISG        N/A
P. ESCONDIDO   PTCLDY    82  73  74 E3        29.97R
VERACRUZ       PTCLDY    82  77  83 E7        29.95R HX  91
ZIHUATANEJO    MOCLDY    82  75  78 E3        29.87R

YUCATAN PENINSULA

CITY           SKY/WX    TMP DP  RH WIND       PRES   REMARKS
CAMPECHE       PTCLDY    77  75  94 E12       29.94R
CANCUN         PTCLDY    82  79  89 E7        30.03R HX  93
CHETUMAL       MOCLDY    82  75  78 CALM      29.98R
CD. DEL CARMEN   N/A    N/A N/A N/A MISG        N/A
COZUMEL        PTCLDY    79  77  94 E6        30.02R
MERIDA         MOCLDY    81  72  74 NE6       30.00R
MINATITLAN       N/A    N/A N/A N/A MISG        N/A
TAPACHULA      CLOUDY    81  77  89 CALM      29.83R
TUX. GUTIERREZ MOCLDY    79  68  69 W7        29.93R
VILLAHERMOSA   MOCLDY    75  73  94 E6        29.94F

CENTRAL AMERICA

CITY           SKY/WX    TMP DP  RH WIND       PRES   REMARKS
BELIZE CITY    PTCLDY    84  79  84 E8        29.99R HX  96
MANAGUA        PTCLDY    77  72  83 E7        29.86S

CARIBBEAN

CITY           SKY/WX    TMP DP  RH WIND       PRES   REMARKS
ARUBA          PTCLDY    82  77  83 E18       29.89S HX  91
KINGSTON       PTCLDY    86  75  70 N13       29.94S HX  95
NASSAU         MOCLDY    84  73  70 NE6       30.07R HX  91
SAN JUAN       LGT RAIN  82  79  89 E9        30.03F HX  93
SANTO DOMINGO  PTCLDY    75  73  94 N5        30.00R THUNDER
ST. CROIX      PTCLDY    82  75  78 E9        30.03S
ST. KITTS      PTCLDY    82  75  78 NE21      30.03
ST. MAARTEN    PTCLDY    84  75  74 E14G26    30.03S HX  92

$$




USA.gov is the U.S. government's official web portal to all federal, state and local government web resources and services.